TimeEST,TemperatureF,Dew PointF,Humidity,Sea Level PressureIn,VisibilityMPH,Wind Direction,Wind SpeedMPH,Gust SpeedMPH,PrecipitationIn,Events,Conditions,WindDirDegrees,DateUTC
12:10 AM,33.8,24.8,70,29.90,10.0,NW,3.5,-,N/A,,Overcast,320,2013-03-02 05:10:00
12:30 AM,33.8,24.8,70,29.90,10.0,NW,8.1,-,N/A,,Overcast,320,2013-03-02 05:30:00
12:50 AM,32.0,26.6,80,29.90,10.0,WNW,4.6,-,N/A,,Overcast,300,2013-03-02 05:50:00
1:10 AM,33.8,26.6,75,29.90,10.0,NNW,4.6,-,N/A,,Overcast,330,2013-03-02 06:10:00
1:30 AM,33.8,26.6,75,29.91,10.0,NW,5.8,-,N/A,,Overcast,320,2013-03-02 06:30:00
1:50 AM,32.0,26.6,80,29.91,10.0,NNW,4.6,-,N/A,,Overcast,340,2013-03-02 06:50:00
2:10 AM,32.0,26.6,80,29.91,10.0,NNW,5.8,-,N/A,,Overcast,340,2013-03-02 07:10:00
2:30 AM,32.0,26.6,80,29.90,10.0,NNW,6.9,-,N/A,,Overcast,330,2013-03-02 07:30:00
2:50 AM,32.0,26.6,80,29.90,10.0,North,5.8,-,N/A,,Overcast,350,2013-03-02 07:50:00
3:10 AM,32.0,26.6,80,29.89,10.0,NNW,8.1,-,N/A,,Overcast,330,2013-03-02 08:10:00
3:30 AM,32.0,24.8,75,29.89,10.0,NNW,9.2,-,N/A,,Overcast,330,2013-03-02 08:30:00
3:50 AM,32.0,24.8,75,29.89,10.0,NW,9.2,-,N/A,,Overcast,320,2013-03-02 08:50:00
4:10 AM,32.0,24.8,75,29.89,10.0,NW,11.5,-,N/A,,Overcast,320,2013-03-02 09:10:00
4:30 AM,32.0,24.8,75,29.90,10.0,NW,11.5,-,N/A,,Overcast,310,2013-03-02 09:30:00
4:50 AM,32.0,24.8,75,29.90,10.0,NW,12.7,-,N/A,,Overcast,310,2013-03-02 09:50:00
5:10 AM,32.0,24.8,75,29.91,10.0,WNW,9.2,-,N/A,,Overcast,300,2013-03-02 10:10:00
5:30 AM,32.0,24.8,75,29.92,10.0,NW,8.1,-,N/A,,Overcast,310,2013-03-02 10:30:00
5:45 AM,32.0,24.8,75,29.91,10.0,NW,9.2,-,N/A,,Overcast,310,2013-03-02 10:45:00
7:55 AM,30.2,23.0,75,29.92,10.0,NNW,11.5,-,N/A,,Overcast,330,2013-03-02 12:55:00
8:50 AM,32.0,23.0,69,29.92,10.0,NNW,8.1,-,N/A,,Overcast,330,2013-03-02 13:50:00
9:50 AM,33.8,23.0,65,29.92,10.0,WNW,12.7,16.1,N/A,,Overcast,300,2013-03-02 14:50:00
11:59 AM,35.6,23.0,60,29.89,10.0,NW,10.4,-,N/A,,Overcast,310,2013-03-02 16:59:00
1:45 PM,35.6,23.0,60,29.85,10.0,NW,16.1,19.6,N/A,,Overcast,320,2013-03-02 18:45:00
2:48 PM,33.8,21.2,60,29.81,10.0,NW,11.5,-,N/A,,Overcast,320,2013-03-02 19:48:00
3:47 PM,35.6,21.2,56,29.85,10.0,NW,12.7,17.3,N/A,,Overcast,320,2013-03-02 20:47:00
6:47 PM,32.0,19.4,60,29.87,10.0,NW,6.9,-,N/A,,Clear,310,2013-03-02 23:47:00
7:50 PM,32.0,21.2,64,29.88,10.0,WNW,8.1,-,N/A,,Overcast,300,2013-03-03 00:50:00
8:10 PM,30.2,21.2,69,29.89,10.0,NNW,5.8,-,N/A,,Scattered Clouds,330,2013-03-03 01:10:00
8:30 PM,30.2,21.2,69,29.89,10.0,NNW,9.2,-,N/A,,Clear,340,2013-03-03 01:30:00
8:50 PM,30.2,21.2,69,29.89,10.0,NW,8.1,-,N/A,,Mostly Cloudy,320,2013-03-03 01:50:00
9:10 PM,32.0,23.0,69,29.90,10.0,NNW,6.9,-,N/A,,Overcast,340,2013-03-03 02:10:00
9:35 PM,30.2,23.0,75,29.89,10.0,NW,8.1,-,N/A,,Overcast,320,2013-03-03 02:35:00
9:55 PM,30.2,23.0,75,29.89,10.0,West,10.4,16.1,N/A,,Overcast,280,2013-03-03 02:55:00
10:15 PM,32.0,23.0,69,29.89,10.0,WNW,13.8,19.6,N/A,,Overcast,300,2013-03-03 03:15:00
10:35 PM,32.0,23.0,69,29.89,10.0,NW,13.8,17.3,N/A,,Overcast,310,2013-03-03 03:35:00
10:55 PM,32.0,23.0,69,29.89,10.0,NNW,5.8,-,N/A,,Overcast,340,2013-03-03 03:55:00
11:15 PM,32.0,23.0,69,29.89,10.0,North,5.8,-,N/A,,Overcast,350,2013-03-03 04:15:00
11:35 PM,32.0,21.2,64,29.88,10.0,NW,10.4,16.1,N/A,,Overcast,310,2013-03-03 04:35:00
11:55 PM,32.0,21.2,64,29.88,10.0,NW,8.1,-,N/A,,Overcast,320,2013-03-03 04:55:00